Tracking 18957 objects as of 22-Jan-2018
HD Live streaming from Space Station
objects crossing your sky now

FENGYUN 1C DEB

Track FENGYUN 1C DEB now!
10-day predictions


NORAD ID: 29925
Int'l Code: 1999-025HX
Perigee: 622.2 km
Apogee: 719.8 km
Inclination: 99.0 °
Period: 98.0 minutes
Semi major axis: 7041 km
RCS: 0.0224 m2 (small)
Launch date: May 10, 1999
Source: People's Republic of China (PRC)
Launch site: Taiyaun Space Center, China (TSC)

Note: This is SATELLITE DEBRIS
aabbcc
Your satellite tracking list
Your tracking list is empty




NASA's NSSDC Master Catalog

Two Line Element Set (TLE):
1 29925U 99025HX  18021.57537344 +.00001689 +00000-0 +28729-3 0  9997
2 29925 099.0229 342.9732 0069300 199.5719 216.5770 14.69140388582398
Source of the keplerian elements: AFSPC